This is the latest recevied weather packets stored in our database for station/object KO4DYK. If no packets are shown the sender has not sent any weather packets the latest 10 day(s).
| Time | Temp. | Humidity | Pressure | Rain* | Wind** | Luminosity | Snow |
|---|---|---|---|---|---|---|---|
| 1778109406 | 11.67° C | 99% | 1018.6 hPa | 0 mm | - | 18 W/m² | - |
| 1778109105 | 11.67° C | 99% | 1018.4 hPa | 0 mm | - | 27 W/m² | - |
| 1778108801 | 11.67° C | 99% | 1018.2 hPa | 0 mm | - | 22 W/m² | - |
| 1778108498 | 11.67° C | 99% | 1018.1 hPa | 0 mm | - | 29 W/m² | - |
| 1778108195 | 11.67° C | 99% | 1017.7 hPa | 0 mm | - | 33 W/m² | - |
| 1778107891 | 11.67° C | 99% | 1018 hPa | 0 mm | - | 37 W/m² | - |
| 1778107588 | 11.67° C | 99% | 1017.1 hPa | 0 mm | - | 68 W/m² | - |
| 1778107284 | 11.67° C | 99% | 1017.2 hPa | 0 mm | - | 53 W/m² | - |
| 1778106981 | 11.67° C | 99% | 1017.6 hPa | 0 mm | - | 49 W/m² | - |
| 1778106677 | 11.67° C | 99% | 1017.6 hPa | 0 mm | - | 52 W/m² | - |
| 1778106374 | 11.67° C | 99% | 1017.7 hPa | 0 mm | - | 38 W/m² | - |
| 1778106070 | 11.67° C | 99% | 1017.9 hPa | 0 mm | - | 46 W/m² | - |
| 1778105768 | 11.67° C | 99% | 1018.2 hPa | 0 mm | - | 44 W/m² | - |
| 1778105466 | 11.67° C | 99% | 1017.9 hPa | 0 mm | - | 74 W/m² | - |
| 1778105162 | 12.22° C | 99% | 1017.6 hPa | 0 mm | - | 120 W/m² | - |
| 1778104857 | 12.22° C | 99% | 1017.6 hPa | 0 mm | - | 85 W/m² | - |
| 1778104554 | 12.22° C | 99% | 1017.5 hPa | 0 mm | - | 157 W/m² | - |
| 1778104250 | 12.22° C | 99% | 1017.9 hPa | 0 mm | - | 170 W/m² | - |
| 1778103947 | 12.22° C | 99% | 1018.1 hPa | 0 mm | - | 184 W/m² | - |
| 1778103644 | 12.22° C | 99% | 1018.4 hPa | 0 mm | - | 92 W/m² | - |
| 1778103342 | 12.22° C | 99% | 1018.7 hPa | 1.27 mm | - | 108 W/m² | - |
| 1778103039 | 12.22° C | 99% | 1018.6 hPa | 1.27 mm | - | 170 W/m² | - |
| 1778102736 | 12.22° C | 99% | 1018.7 hPa | 0 mm | - | 115 W/m² | - |
| 1778102431 | 12.22° C | 99% | 1019 hPa | 0 mm | - | 67 W/m² | - |
| 1778102127 | 12.22° C | 99% | 1018.9 hPa | 0 mm | - | 44 W/m² | - |
* Rain latest hour (hover to see other rain measurements)
** Current wind speed in m/s (hover to see current wind gust speed)